Regional Weather Roundup
Issued by NWS

Home | Current Version | Previous Version | Graphics & Text | Print | Product List | Glossary On
Versions: 1 2 3 4 5 6 7 8 9 10 11 12 13 14 15 16 17 18 19 20 21 22 23 24 25 26 27 28 29 30 31 32 33 34 35 36 37 38 39 40 41 42 43 44 45 46 47 48 49 50
988
ASUS43 KDMX 161301
RWRIA

WEATHER ROUNDUP FOR IOWA
NATIONAL WEATHER SERVICE DES MOINES IA
800 AM CDT WED AUG 16 2017

NOTE: "FAIR" INDICATES FEW OR NO CLOUDS BELOW 12,000 FEET WITH NO
SIGNIFICANT WEATHER AND/OR OBSTRUCTIONS TO VISIBILITY.

* - THESE STATIONS ARE NOT NWS STATIONS...THUS NOT UNDER NWS
QUALITY CONTROL.  THEY ALSO DO NOT REPORT WEATHER SUCH
AS PRECIPITATION OR FOG.

IAZ001>003-012>014-020>022-031>034-043>046-161400-
   NORTHWEST IOWA

CITY           SKY/WX    TMP DP  RH WIND       PRES   REMARKS
CARROLL *      CLOUDY    70  70 100 SE10      29.83S FOG
CHEROKEE *     LGT RAIN  68  68 100 E6        29.84S
DENISON *      CLOUDY    70  70 100 E12G17    29.82S FOG
LE MARS *      RAIN      66  66 100 NE7       29.81F
ORANGE CITY *  RAIN      68  68 100 CALM      29.85F
SHELDON *      CLOUDY    66  66 100 E5        29.84S FOG
SIOUX CITY     RAIN      68  67  96 VRB6      29.81R FOG
SPENCER        FOG       68  67  96 E10       29.86F VSB 3/4
STORM LAKE *   CLOUDY    68  68 100 E8        29.85S VSB<1/4
$$

IAZ055>058-069>071-079>083-090>094-161400-
   SOUTHWEST IOWA

CITY           SKY/WX    TMP DP  RH WIND       PRES   REMARKS
ATLANTIC *     PTSUNNY   73  70  88 SE8       29.81R
AUDUBON *      CLOUDY    72  68  88 SE6       29.83S FOG
CLARINDA *     CLOUDY    73  70  88 SE7       29.83R
COUNCIL BLFS * CLOUDY    72  72 100 SE9       29.79R
CRESTON *      CLOUDY    70  70 100 SE9       29.86S
HARLAN  *      CLOUDY    72  72 100 SE8       29.83S
LAMONI         CLOUDY    71  69  93 SE5       29.85R
RED OAK *      MOSUNNY   73  70  88 SE12      29.80R
SHENANDOAH *   PTSUNNY   75  70  83 SE9       29.80R
$$

IAZ047>049-059>061-072>074-084-161400-
   CENTRAL IOWA

CITY           SKY/WX    TMP DP  RH WIND       PRES   REMARKS
AMES           CLOUDY    69  69 100 SE7       29.86S FOG
ANKENY *       CLOUDY    70  68  94 E7        29.87R
BOONE *        CLOUDY    68  68 100 E8        29.85F FOG
CHARITON *     CLOUDY    72  70  94 SE8       29.87R FOG
DES MOINES     CLOUDY    71  69  93 E10       29.84S
GRINNELL*      CLOUDY    67  66  96 E8        29.91R FOG
KNOXVILLE *    CLOUDY    70  68  94 SE8       29.86S FOG
MARSHALLTOWN   SUNNY     69  68  96 E14       29.88S FOG
NEWTON *       CLOUDY    68  68 100 SE8       29.89R FOG
PELLA *        CLOUDY    69  67  94 E6        29.89R FOG
PERRY *        CLOUDY    70  69  98 E8        29.84F FOG
$$

IAZ004>006-015-016-023>025-035-036-161400-
   NORTH CENTRAL IOWA

CITY           SKY/WX    TMP DP  RH WIND       PRES   REMARKS
ALGONA *       CLOUDY    66  66 100 SE7G13    29.88S FOG
CLARION *      CLOUDY    66  66 100 SE9       29.88F FOG
ESTHERVILLE    FOG       65  65 100 E7        29.88R VSB 1/4
FORT DODGE *   CLOUDY    66  63  88 E5        29.87F VSB 3/4
MASON CITY     CLOUDY    66  64  93 SE12      29.92S FOG
FOREST CITY *  CLOUDY    66  64  94 SE6       29.91R FOG
WEBSTER CITY * CLOUDY    68  66  94 E6        29.85F FOG
IOWA FALLS *   CLOUDY    67  66  96 E6        29.90S FOG
$$

IAZ007>011-017>019-026>030-037>042-050>054-066-161400-
   NORTHEAST IOWA

CITY           SKY/WX    TMP DP  RH WIND       PRES   REMARKS
CEDAR RAPIDS   PTSUNNY   66  66 100 E10       29.92R FOG
CHARLES CITY * CLOUDY    66  66 100 SE13      29.93R FOG
CLINTON *      MOSUNNY   68  65  90 E12       29.97S
DECORAH *      PTSUNNY   63  61  94 VRB6G13   29.95S
DUBUQUE        SUNNY     65  62  90 SE9       29.97F
MONTICELLO *   SUNNY     66  64  94 E7G15     29.95S
OELWEIN *      MOSUNNY   66  64  94 SE12      29.94S
WATERLOO       CLOUDY    67  64  90 SE12      29.91R FOG
$$

IAZ064-065-067-068-078-161400-
   EAST CENTRAL IOWA

CITY           SKY/WX    TMP DP  RH WIND       PRES   REMARKS
DAVENPORT      SUNNY     68  65  90 E10       29.97F FOG
IOWA CITY      CLOUDY    70  67  90 E8        29.93S
MUSCATINE *    CLOUDY    72  68  88 SE3       29.93R
QUAD CITIES    SUNNY     70  65  84 E10       29.95S HAZE
$$

IAZ062-063-075>077-085>089-095>099-161400-
   SOUTHEAST IOWA

CITY           SKY/WX    TMP DP  RH WIND       PRES   REMARKS
BURLINGTON     SUNNY     71  70  96 E6        29.92R
FAIRFIELD *    MOSUNNY   72  68  88 SE8       29.90R
FORT MADISON * SUNNY     73  72  94 SE5       29.93R FOG
KEOKUK *       SUNNY     73  70  88 SE8       29.91R
OSKALOOSA *      N/A     69  68  96 SE8       29.89S FOG
OTTUMWA        SUNNY     71  70  96 SE13      29.89R FOG
WASHINGTON *   CLOUDY    72  70  94 E7        29.93R FOG
$$

ABBREVIATIONS USED IN REMARKS
   TC - TEMPERATURES IN CELSIUS
  WCI - WIND CHILL INDEX
   HX - HEAT INDEX
  VSB - VISIBILITY
$$





USA.gov is the U.S. government's official web portal to all federal, state and local government web resources and services.